Вернуться в каталог

STARLINK-36680

АктивенСвязьVLEO
NORAD 68721·PAYLOAD·🇺🇸 United States

Запущен Apr 14, 2026 с Cape Canaveral Space Force Station

Loading…

Ближайшие Пролёты (ближайшие 24 часа)

TLE

СвежийSource: CelesTrak SupGP

Эпоха: Sep 14, 2026, 20:56 UTC

1 68721C 26081Y   26257.87270833  .00042084  00000+0  12434-2 0  2571
2 68721  53.1584 231.8534 0001466  98.3467  17.1067 15.34368011    17

Отслеживайте STARLINK-36680 в реальном времени с AllMySat

Download on the App Store